DW2363 Weather Reports


time (UTC)temp
C
wind
direction
speed
KPH
gust
KPH
rain 1hr
cm
rain 24hr
cm
rain mn
cm
humidity
%
barometer
mb
20260510194821 23 153 3.2 8.0 0.00 0.00 0.00 63 1014.1
20260510194326 23 123 3.2 9.7 0.00 0.00 0.00 64 1014.2
20260510194322 23 153 3.2 9.7 0.00 0.00 0.00 63 1014.2
20260510193321 23 170 4.8 9.7 0.00 0.00 0.00 64 1014.2
20260510192821 23 170 4.8 9.7 0.00 0.00 0.00 66 1014.2
20260510192322 23 156 3.2 8.0 0.00 0.00 0.00 64 1014.2
20260510191821 23 137 3.2 6.4 0.00 0.00 0.00 66 1014.2
20260510191324 22 139 4.8 11.3 0.00 0.00 0.00 67 1014.2
20260510191320 22 128 4.8 11.3 0.00 0.00 0.00 67 1014.2
20260510190321 22 140 4.8 11.3 0.00 0.00 0.00 66 1014.2
20260510185820 23 132 4.8 11.3 0.00 0.00 0.00 64 1014.2
20260510185319 23 110 3.2 11.3 0.00 0.00 0.00 62 1014.2
20260510184819 23 207 3.2 11.3 0.00 0.00 0.00 62 1014.2
20260510184319 23 194 3.2 11.3 0.00 0.00 0.00 59 1014.2
20260510183819 23 134 3.2 9.7 0.00 0.00 0.00 58 1014.1
20260510183319 23 178 3.2 9.7 0.00 0.00 0.00 60 1014.1
20260510182819 24 167 3.2 6.4 0.00 0.00 0.00 59 1014.2
20260510182318 24 144 3.2 9.7 0.00 0.00 0.00 61 1014.2
20260510181823 24 121 1.6 9.7 0.00 0.00 0.00 58 1014.2
20260510181819 24 162 3.2 9.7 0.00 0.00 0.00 58 1014.1
20260510180821 25 155 1.6 6.4 0.00 0.00 0.00 57 1014.2
20260510180817 25 165 1.6 9.7 0.00 0.00 0.00 59 1014.1
20260510180423 25 148 1.6 6.4 0.00 0.00 0.00 59 1014.1
20260510175315 25 121 0.0 4.8 0.00 0.00 0.00 57 1014.0
20260510174815 24 126 0.0 4.8 0.00 0.00 0.00 59 1014.0
20260510174319 23 103 1.6 8.0 0.00 0.00 0.00 65 1014.0
20260510174315 24 148 1.6 6.4 0.00 0.00 0.00 60 1014.1
20260510173922 22 61 3.2 8.0 0.00 0.00 0.00 67 1013.9
20260510173424 22 345 3.2 8.0 0.00 0.00 0.00 68 1013.8
20260510172315 22 355 3.2 8.0 0.00 0.00 0.00 66 1013.8
20260510171815 22 348 1.6 6.4 0.00 0.00 0.00 66 1013.8
20260510171315 22 34 1.6 4.8 0.00 0.00 0.00 65 1013.8
20260510170815 22 337 1.6 8.0 0.00 0.00 0.00 63 1013.7
20260510170312 23 12 3.2 8.0 0.00 0.00 0.00 61 1013.7
20260510165811 23 17 1.6 4.8 0.00 0.00 0.00 60 1013.7
20260510165311 23 46 1.6 4.8 0.00 0.00 0.00 60 1013.6
20260510164812 23 120 1.6 4.8 0.00 0.00 0.00 63 1013.6
20260510164311 22 76 1.6 4.8 0.00 0.00 0.00 54 1013.6
20260510163814 22 0 3.2 8.0 0.00 0.00 0.00 60 1013.6
20260510163810 22 18 1.6 4.8 0.00 0.00 0.00 57 1013.6
20260510163419 22 355 3.2 8.0 0.00 0.00 0.00 57 1013.5
20260510162309 22 42 3.2 6.4 0.00 0.00 0.00 56 1013.5
20260510161808 22 355 3.2 8.0 0.00 0.00 0.00 55 1013.5
20260510161308 22 9 4.8 8.0 0.00 0.00 0.00 56 1013.4
20260510160809 21 11 6.4 8.0 0.00 0.00 0.00 55 1013.2
20260510160307 22 351 6.4 11.3 0.00 0.00 0.00 54 1013.1
20260510155808 22 13 6.4 11.3 0.00 0.00 0.00 53 1013.2
20260510155308 21 5 6.4 11.3 0.00 0.00 0.00 52 1013.2
20260510154808 21 26 6.4 11.3 0.00 0.00 0.00 54 1013.2
20260510154307 21 10 6.4 11.3 0.00 0.00 0.00 55 1013.2
20260510153807 21 5 8.0 11.3 0.00 0.00 0.00 56 1013.4
20260510153315 21 9 6.4 9.7 0.00 0.00 0.00 56 1013.2
20260510153309 21 5 6.4 11.3 0.00 0.00 0.00 57 1013.2
20260510152308 21 355 6.4 9.7 0.00 0.00 0.00 57 1013.1
20260510151807 21 348 6.4 9.7 0.00 0.00 0.00 56 1013.1
20260510151308 21 351 6.4 9.7 0.00 0.00 0.00 57 1013.1
20260510150807 21 344 8.0 12.9 0.00 0.00 0.00 54 1013.2
20260510150307 21 349 9.7 12.9 0.00 0.00 0.00 54 1013.2
20260510145807 21 355 9.7 12.9 0.00 0.00 0.00 53 1013.1
20260510145311 21 341 9.7 12.9 0.00 0.00 0.00 51 1013.0
20260510145306 21 338 9.7 12.9 0.00 0.00 0.00 55 1013.0
20260510144305 21 339 8.0 9.7 0.00 0.00 0.00 55 1013.0
20260510143804 21 339 8.0 9.7 0.00 0.00 0.00 59 1013.0
20260510143304 21 340 8.0 12.9 0.00 0.00 0.00 59 1013.0
20260510142804 21 333 6.4 12.9 0.00 0.00 0.00 58 1012.9
20260510142308 20 346 4.8 8.0 0.00 0.00 0.00 63 1012.9
20260510142306 20 336 4.8 9.7 0.00 0.00 0.00 60 1012.8
20260510141302 20 336 6.4 9.7 0.00 0.00 0.00 62 1012.9
20260510140802 20 336 6.4 9.7 0.00 0.00 0.00 64 1012.8
20260510140301 20 333 8.0 12.9 0.00 0.00 0.00 63 1012.8
20260510135800 19 327 8.0 12.9 0.00 0.00 0.00 65 1012.8
20260510135300 19 331 8.0 12.9 0.00 0.00 0.00 65 1012.7
20260510134800 19 334 8.0 12.9 0.00 0.00 0.00 65 1012.6
20260510134300 19 331 8.0 12.9 0.00 0.00 0.00 64 1012.6
20260510133800 19 330 8.0 9.7 0.00 0.00 0.00 66 1012.6
20260510133304 18 338 9.7 12.9 0.00 0.00 0.00 68 1012.6
20260510133300 18 343 8.0 12.9 0.00 0.00 0.00 66 1012.6
20260510132300 18 332 11.3 12.9 0.00 0.00 0.00 70 1012.5
20260510131800 18 338 11.3 12.9 0.00 0.00 0.00 70 1012.5
20260510131258 18 342 11.3 14.5 0.00 0.00 0.00 69 1012.5
20260510130758 18 339 11.3 14.5 0.00 0.00 0.00 70 1012.6
20260510130258 18 355 9.7 14.5 0.00 0.00 0.00 68 1012.6
20260510125758 18 350 8.0 12.9 0.00 0.00 0.00 66 1012.5
20260510125306 20 355 8.0 9.7 0.00 0.00 0.00 61 1012.4
20260510125258 19 344 8.0 9.7 0.00 0.00 0.00 65 1012.4
20260510124906 20 5 8.0 11.3 0.00 0.00 0.00 60 1012.5
20260510124259 20 5 8.0 9.7 0.00 0.00 0.00 60 1012.4
20260510123258 20 5 8.0 11.3 0.00 0.00 0.00 59 1012.5
20260510122758 20 18 8.0 11.3 0.00 0.00 0.00 59 1012.5
20260510122258 20 18 9.7 11.3 0.00 0.00 0.00 58 1012.5
20260510121758 20 18 9.7 11.3 0.00 0.00 0.00 58 1012.5
20260510121258 20 18 8.0 11.3 0.00 0.00 0.00 59 1012.5
20260510120758 20 18 8.0 11.3 0.00 0.00 0.00 59 1012.5
20260510120258 19 18 8.0 11.3 0.00 0.00 0.00 59 1012.6
20260510115758 19 18 8.0 11.3 0.00 0.00 0.00 61 1012.5
20260510115258 18 25 8.0 11.3 0.00 0.00 0.00 62 1012.4
20260510114758 17 21 9.7 12.9 0.00 0.00 0.00 68 1012.5
20260510114258 17 11 9.7 12.9 0.00 0.00 0.00 71 1012.4
20260510113757 17 5 11.3 12.9 0.00 0.00 0.00 71 1012.5
20260510113258 17 5 11.3 12.9 0.00 0.00 0.00 70 1012.4
20260510112758 18 11 9.7 12.9 0.00 0.00 0.00 70 1012.4
20260510112258 18 5 11.3 12.9 0.00 0.00 0.00 69 1012.3
20260510111758 18 20 12.9 12.9 0.00 0.00 0.00 70 1012.3
20260510111256 17 20 11.3 12.9 0.00 0.00 0.00 71 1012.3
20260510110756 17 26 11.3 14.5 0.00 0.00 0.00 73 1012.3
20260510110256 17 26 12.9 14.5 0.00 0.00 0.00 69 1012.3
20260510105756 17 28 9.7 14.5 0.00 0.00 0.00 68 1012.2
20260510105257 18 42 8.0 11.3 0.00 0.00 0.00 70 1012.3
20260510104755 18 31 8.0 11.3 0.00 0.00 0.00 69 1012.3
20260510104256 18 12 6.4 11.3 0.00 0.00 0.00 71 1012.4
20260510103756 18 12 4.8 8.0 0.00 0.00 0.00 67 1012.3
20260510103300 19 14 6.4 11.3 0.00 0.00 0.00 69 1012.3
20260510103256 19 22 4.8 8.0 0.00 0.00 0.00 68 1012.3
20260510102256 19 14 6.4 11.3 0.00 0.00 0.00 67 1012.3
20260510101754 20 14 8.0 9.7 0.00 0.00 0.00 66 1012.3
20260510101251 20 14 8.0 9.7 0.00 0.00 0.00 63 1012.3
20260510100751 20 30 8.0 9.7 0.00 0.00 0.00 60 1012.3
20260510100252 20 36 6.4 9.7 0.00 0.00 0.00 61 1012.3
20260510095752 19 57 4.8 8.0 0.00 0.00 0.00 62 1012.4
20260510095251 19 82 3.2 4.8 0.00 0.00 0.00 65 1012.5
20260510094748 18 82 3.2 4.8 0.00 0.00 0.00 68 1012.5
20260510094254 18 82 1.6 6.4 0.00 0.00 0.00 69 1012.5
20260510094248 18 82 1.6 4.8 0.00 0.00 0.00 68 1012.5
20260510093248 18 82 3.2 6.4 0.00 0.00 0.00 69 1012.5
20260510092748 18 82 3.2 6.4 0.00 0.00 0.00 67 1012.5
20260510092247 19 82 4.8 6.4 0.00 0.00 0.00 64 1012.5
20260510091753 19 82 4.8 8.0 0.00 0.00 0.00 62 1012.5
20260510091747 19 82 4.8 8.0 0.00 0.00 0.00 65 1012.5
20260510090747 19 82 6.4 11.3 0.00 0.00 0.00 59 1012.6
20260510090253 19 72 8.0 11.3 0.00 0.00 0.00 59 1012.5
20260510090247 19 81 8.0 11.3 0.00 0.00 0.00 56 1012.5
20260510085855 19 68 8.0 11.3 0.00 0.00 0.00 62 1012.5
20260510085354 19 78 6.4 11.3 0.00 0.00 0.00 61 1012.5
20260510084253 19 89 4.8 9.7 0.00 0.00 0.00 57 1012.5
20260510084248 19 63 6.4 11.3 0.00 0.00 0.00 61 1012.5
20260510083248 19 85 6.4 9.7 0.00 0.00 0.00 60 1012.6
20260510082747 19 59 6.4 11.3 0.00 0.00 0.00 63 1012.6
20260510082247 19 61 6.4 11.3 0.00 0.00 0.00 57 1012.7
20260510081753 19 74 8.0 11.3 0.00 0.00 0.00 59 1012.8
20260510081747 19 84 8.0 11.3 0.00 0.00 0.00 59 1012.7
20260510080751 19 64 8.0 9.7 0.00 0.00 0.00 59 1012.8
20260510080745 19 80 8.0 11.3 0.00 0.00 0.00 61 1012.8
20260510075746 19 69 8.0 9.7 0.00 0.00 0.00 60 1012.9
20260510075243 18 55 8.0 9.7 0.00 0.00 0.00 60 1013.0
20260510074743 18 41 8.0 9.7 0.00 0.00 0.00 63 1013.0
20260510074241 18 61 6.4 11.3 0.00 0.00 0.00 62 1013.0
20260510073741 18 317 6.4 11.3 0.00 0.00 0.00 63 1013.0
20260510073241 18 10 8.0 11.3 0.00 0.00 0.00 66 1013.2
20260510072740 18 24 8.0 9.7 0.00 0.00 0.00 65 1013.2
20260510072241 18 31 8.0 9.7 0.00 0.00 0.00 67 1013.2
20260510071742 18 46 8.0 9.7 0.00 0.00 0.00 64 1013.1
20260510071242 18 51 8.0 11.3 0.00 0.00 0.00 66 1013.1
20260510070741 18 49 8.0 11.3 0.00 0.00 0.00 67 1013.2
20260510070240 18 49 8.0 11.3 0.00 0.00 0.00 71 1013.2
20260510065739 18 53 8.0 9.7 0.00 0.00 0.00 70 1013.2
20260510065239 18 50 9.7 12.9 0.00 0.00 0.00 70 1013.2
20260510064739 18 41 9.7 12.9 0.00 0.00 0.00 69 1013.4
20260510064239 18 43 9.7 11.3 0.00 0.00 0.00 73 1013.2
20260510063739 18 43 9.7 11.3 0.00 0.00 0.00 72 1013.2
20260510063243 18 43 9.7 11.3 0.00 0.00 0.00 72 1013.2
20260510063239 18 43 9.7 11.3 0.00 0.00 0.00 72 1013.2
20260510062237 18 43 9.7 11.3 0.00 0.00 0.00 72 1013.2
20260510061735 18 43 9.7 11.3 0.00 0.00 0.00 72 1013.2
20260510061235 18 43 9.7 11.3 0.00 0.00 0.00 73 1013.2
20260510060735 18 43 8.0 9.7 0.00 0.00 0.00 73 1013.2
20260510060232 18 43 6.4 9.7 0.00 0.00 0.00 74 1013.2
20260510055737 18 28 6.4 8.0 0.00 0.00 0.00 73 1013.4
20260510055732 18 28 6.4 8.0 0.00 0.00 0.00 72 1013.4
20260510054732 18 28 6.4 8.0 0.00 0.00 0.00 73 1013.4
20260510054235 18 28 6.4 8.0 0.00 0.00 0.00 73 1013.4
20260510054231 18 28 4.8 8.0 0.00 0.00 0.00 73 1013.4
20260510053231 18 28 4.8 8.0 0.00 0.00 0.00 73 1013.5
20260510052730 18 28 4.8 6.4 0.00 0.00 0.00 72 1013.5
20260510052231 18 28 4.8 6.4 0.00 0.00 0.00 72 1013.5
20260510051731 19 28 4.8 8.0 0.00 0.00 0.00 73 1013.5
20260510051229 19 28 4.8 8.0 0.00 0.00 0.00 73 1013.5
20260510050729 18 28 6.4 8.0 0.00 0.00 0.00 72 1013.5
20260510050228 18 28 6.4 8.0 0.00 0.00 0.00 72 1013.5
20260510045728 19 40 4.8 8.0 0.00 0.00 0.00 72 1013.5
20260510045230 19 40 4.8 8.0 0.00 0.00 0.00 73 1013.5
20260510044731 19 40 6.4 8.0 0.00 0.00 0.00 72 1013.4
20260510044727 19 40 6.4 9.7 0.00 0.00 0.00 72 1013.4
20260510044334 19 40 6.4 9.7 0.00 0.00 0.00 72 1013.4
20260510043834 19 47 4.8 8.0 0.00 0.00 0.00 71 1013.4
20260510043334 20 47 3.2 4.8 0.00 0.00 0.00 71 1013.2
20260510042227 20 70 4.8 8.0 0.00 0.00 0.00 70 1013.4
20260510041727 20 70 6.4 8.0 0.00 0.00 0.00 70 1013.2
20260510041226 20 70 4.8 8.0 0.00 0.00 0.00 70 1013.0
20260510040726 20 61 4.8 8.0 0.00 0.00 0.00 70 1013.0
20260510040226 20 76 3.2 8.0 0.00 0.00 0.00 69 1013.0
20260510035726 20 100 4.8 8.0 0.00 0.00 0.00 69 1013.0
20260510035226 20 69 4.8 8.0 0.00 0.00 0.00 69 1012.9
20260510034726 20 72 4.8 9.7 0.00 0.00 0.00 69 1012.9
20260510034228 20 84 4.8 9.7 0.00 0.00 0.00 68 1013.0
20260510033726 20 86 6.4 11.3 0.00 0.00 0.00 69 1012.9
20260510033226 20 61 8.0 12.9 0.00 0.00 0.00 69 1012.8
20260510032732 20 73 4.8 11.3 0.00 0.00 0.00 69 1012.7
20260510032726 20 73 8.0 12.9 0.00 0.00 0.00 69 1012.8
20260510031726 20 62 6.4 11.3 0.00 0.00 0.00 68 1012.6
20260510031226 21 69 8.0 11.3 0.00 0.00 0.00 68 1012.5
20260510030726 21 78 4.8 8.0 0.00 0.00 0.00 68 1012.5
20260510030226 21 78 4.8 8.0 0.00 0.00 0.00 68 1012.4
20260510025729 21 78 4.8 8.0 0.00 0.00 0.00 68 1012.3
20260510025725 21 75 3.2 8.0 0.00 0.00 0.00 67 1012.3
20260510024724 21 48 3.2 6.4 0.00 0.00 0.00 67 1012.2
20260510024225 21 69 3.2 6.4 0.00 0.00 0.00 66 1012.2
20260510023724 21 69 3.2 6.4 0.00 0.00 0.00 66 1012.3
20260510023222 22 69 3.2 6.4 0.00 0.00 0.00 65 1012.2
20260510022720 22 5 3.2 4.8 0.00 0.00 0.00 65 1012.3
20260510022220 22 241 1.6 4.8 0.00 0.00 0.00 64 1012.2
20260510021724 22 229 0.0 1.6 0.00 0.00 0.00 64 1012.2
20260510021720 22 229 0.0 1.6 0.00 0.00 0.00 64 1012.3
20260510020724 22 229 0.0 6.4 0.00 0.00 0.00 64 1012.2
20260510020720 22 229 0.0 1.6 0.00 0.00 0.00 64 1012.2
20260510015725 22 225 1.6 6.4 0.00 0.00 0.00 63 1012.2
20260510015720 22 229 1.6 6.4 0.00 0.00 0.00 62 1012.2
20260510014720 22 261 1.6 6.4 0.00 0.00 0.00 63 1012.2
20260510014224 22 228 3.2 4.8 0.00 0.00 0.00 63 1012.2
20260510014220 22 228 1.6 4.8 0.00 0.00 0.00 62 1012.2
20260510013217 22 242 3.2 6.4 0.00 0.00 0.00 63 1012.2
20260510012719 22 227 4.8 8.0 0.00 0.00 0.00 63 1012.1
20260510012218 22 200 4.8 8.0 0.00 0.00 0.00 63 1012.1
20260510011718 22 223 4.8 8.0 0.00 0.00 0.00 63 1012.1
20260510011217 22 198 4.8 11.3 0.00 0.00 0.00 64 1012.1
20260510010722 22 214 4.8 11.3 0.00 0.00 0.00 64 1012.1
20260510010718 22 200 4.8 11.3 0.00 0.00 0.00 64 1012.1
20260510005718 22 204 4.8 11.3 0.00 0.00 0.00 64 1012.1
20260510005222 22 225 6.4 12.9 0.00 0.00 0.00 65 1012.1
20260510005217 22 212 6.4 12.9 0.00 0.00 0.00 65 1012.1
20260510004216 22 219 6.4 11.3 0.00 0.00 0.00 66 1012.1
20260510003716 21 205 8.0 12.9 0.00 0.00 0.00 65 1012.1
20260510003216 21 221 8.0 12.9 0.00 0.00 0.00 65 1012.1
20260510002716 21 237 8.0 11.3 0.00 0.00 0.00 66 1012.2
20260510002216 21 246 8.0 12.9 0.00 0.00 0.00 65 1012.1
20260510001716 21 229 8.0 12.9 0.00 0.00 0.00 66 1012.2
20260510001216 21 234 8.0 12.9 0.00 0.00 0.00 65 1012.1
20260510000716 21 236 8.0 11.3 0.00 0.00 0.00 64 1012.1
20260510000216 21 219 8.0 11.3 0.00 0.00 0.00 65 1012.1
20260509235716 22 246 8.0 12.9 0.00 0.00 0.00 64 1012.2
20260509235220 22 232 8.0 12.9 0.00 0.00 0.00 64 1012.2
20260509235216 21 244 8.0 12.9 0.00 0.00 0.00 64 1012.3
20260509234215 22 225 8.0 11.3 0.00 0.00 0.00 64 1012.3
20260509233716 22 212 6.4 11.3 0.00 0.00 0.00 62 1012.3
20260509233215 22 231 6.4 11.3 0.00 0.00 0.00 64 1012.3
20260509232715 22 246 6.4 11.3 0.00 0.00 0.00 63 1012.3
20260509232216 22 225 6.4 11.3 0.00 0.00 0.00 63 1012.3
20260509231719 22 216 6.4 11.3 0.00 0.00 0.00 62 1012.4
20260509231715 23 206 4.8 9.7 0.00 0.00 0.00 62 1012.3
20260509231325 23 217 3.2 8.0 0.00 0.00 0.00 63 1012.3
20260509230217 23 225 3.2 8.0 0.00 0.00 0.00 63 1012.3
20260509230213 23 223 3.2 8.0 0.00 0.00 0.00 63 1012.3
20260509225211 23 228 3.2 11.3 0.00 0.00 0.00 64 1012.4
20260509224711 22 240 4.8 11.3 0.00 0.00 0.00 65 1012.4
20260509224211 22 237 4.8 9.7 0.00 0.00 0.00 65 1012.5
20260509223711 23 240 4.8 9.7 0.00 0.00 0.00 63 1012.5
20260509223208 23 225 4.8 9.7 0.00 0.00 0.00 64 1012.6
20260509222713 23 186 3.2 9.7 0.00 0.00 0.00 63 1012.6
20260509222707 23 189 4.8 9.7 0.00 0.00 0.00 63 1012.6
20260509221706 23 194 3.2 8.0 0.00 0.00 0.00 64 1012.6
20260509221208 23 221 3.2 9.7 0.00 0.00 0.00 63 1012.7
20260509221204 23 205 3.2 9.7 0.00 0.00 0.00 63 1012.8
20260509220203 23 189 3.2 8.0 0.00 0.00 0.00 62 1012.9
20260509215704 23 155 3.2 9.7 0.00 0.00 0.00 64 1012.9
20260509215204 22 189 3.2 9.7 0.00 0.00 0.00 61 1012.9
20260509214704 22 192 3.2 8.0 0.00 0.00 0.00 61 1012.9
20260509214203 23 213 3.2 8.0 0.00 0.00 0.00 62 1013.0
20260509213703 23 177 3.2 8.0 0.00 0.00 0.00 63 1013.1
20260509213204 23 183 3.2 9.7 0.00 0.00 0.00 62 1013.1
20260509212710 23 226 3.2 8.0 0.00 0.00 0.00 63 1013.2
20260509212704 23 161 3.2 9.7 0.00 0.00 0.00 63 1013.1
20260509211704 23 188 3.2 8.0 0.00 0.00 0.00 63 1013.2
20260509211203 23 155 3.2 8.0 0.00 0.00 0.00 64 1013.4
20260509210703 23 168 3.2 8.0 0.00 0.00 0.00 63 1013.4
20260509210203 23 131 3.2 9.7 0.00 0.00 0.00 62 1013.4
20260509205704 23 184 1.6 9.7 0.00 0.00 0.00 63 1013.4
20260509205204 23 136 1.6 9.7 0.00 0.00 0.00 62 1013.5
20260509204704 23 164 3.2 11.3 0.00 0.00 0.00 64 1013.4
20260509204211 23 128 1.6 14.5 0.00 0.00 0.00 65 1013.5
20260509204204 23 115 1.6 11.3 0.00 0.00 0.00 66 1013.5
20260509203203 23 172 3.2 14.5 0.00 0.00 0.00 65 1013.4
20260509202704 23 191 3.2 16.1 0.00 0.00 0.00 65 1013.5
20260509202203 23 188 3.2 16.1 0.00 0.00 0.00 65 1013.5
20260509201704 23 215 1.6 9.7 0.00 0.00 0.00 66 1013.5
20260509201204 23 167 1.6 6.4 0.00 0.00 0.00 66 1013.6
20260509200706 22 130 1.6 6.4 0.00 0.00 0.00 66 1013.5
20260509200702 23 160 1.6 6.4 0.00 0.00 0.00 64 1013.5
20260509195701 22 239 1.6 11.3 0.00 0.00 0.00 63 1013.6
20260509195202 23 126 3.2 11.3 0.00 0.00 0.00 66 1013.6